Tracking 29494 objects as of 8-Sep-2024
HD Live streaming from Space Station
objects crossing your sky now

STARLINK-5477

Track STARLINK-5477 now!
10-day predictions
STARLINK-5477 is classified as:


NORAD ID: 55659
Int'l Code: 2023-021AH
Perigee: 577.2 km
Apogee: 581.2 km
Inclination: 70.0 °
Period: 96.1 minutes
Semi major axis: 6950 km
RCS: Unknown
Launch date: February 17, 2023
Source: United States (US)
Launch site: AIR FORCE WESTERN TEST RANGE (AFWTR)
Your satellite tracking list
Your tracking list is empty




NASA's NSSDC Master Catalog

Two Line Element Set (TLE):
1 55659U 23021AH  24251.87389202  .00000828  00000-0  77168-4 0  9992
2 55659  69.9989 105.8333 0002922 268.6345  91.4480 14.98330424 86923
Source of the keplerian elements: AFSPC